CW2157 Weather Reports


Display with metric or nautical units.
time (UTC)temp
F
wind
direction
speed
MPH
gust
MPH
rain 1hr
in
rain 24hr
in
rain mn
in
humidity
%
barometer
mb
20260509164205 72 214 11.0 21.0 0.00 0.00 0.00 59 1009.0
20260509163704 72 206 13.0 23.0 0.00 0.00 0.00 59 1009.0
20260509163205 72 197 16.0 26.0 0.00 0.00 0.00 59 1008.9
20260509162705 72 189 12.0 18.0 0.00 0.00 0.00 61 1008.9
20260509162205 72 216 15.0 24.0 0.00 0.00 0.00 60 1009.1
20260509161205 72 203 15.0 22.0 0.00 0.00 0.00 60 1009.5
20260509160705 71 199 16.0 22.0 0.00 0.00 0.00 58 1009.4
20260509160205 71 197 16.0 23.0 0.00 0.00 0.00 62 1009.5
20260509155705 70 210 17.0 20.0 0.00 0.00 0.00 62 1009.5
20260509154705 70 212 12.0 20.0 0.00 0.00 0.00 62 1009.3
20260509154205 69 214 13.0 20.0 0.00 0.00 0.00 62 1009.3
20260509153705 69 197 10.0 17.0 0.00 0.00 0.00 62 1009.4
20260509153205 69 167 10.0 14.0 0.00 0.00 0.00 63 1009.6
20260509152705 68 8 11.0 18.0 0.00 0.00 0.00 64 1009.7
20260509152205 69 58 13.0 20.0 0.00 0.00 0.00 62 1009.7
20260509151705 69 121 12.0 17.0 0.00 0.00 0.00 63 1009.7
20260509151204 69 220 14.0 20.0 0.00 0.00 0.00 63 1009.9
20260509150705 69 226 12.0 20.0 0.00 0.00 0.00 62 1010.0
20260509150205 68 208 16.0 20.0 0.00 0.00 0.00 63 1010.2
20260509145205 68 219 14.0 20.0 0.00 0.00 0.00 64 1010.4
20260509144705 67 191 13.0 18.0 0.00 0.00 0.00 65 1010.4
20260509144205 67 212 13.0 20.0 0.00 0.00 0.00 65 1010.3
20260509143205 67 230 12.0 18.0 0.00 0.00 0.00 66 1010.3
20260509142705 66 193 10.0 16.0 0.00 0.00 0.00 68 1010.4
20260509141205 65 211 12.0 17.0 0.00 0.00 0.00 68 1010.6
20260509140705 65 200 13.0 18.0 0.00 0.00 0.00 69 1010.5
20260509140205 65 194 11.0 16.0 0.00 0.00 0.00 69 1010.5
20260509135705 65 188 12.0 20.0 0.00 0.00 0.00 69 1010.5
20260509135205 65 195 11.0 16.0 0.00 0.00 0.00 69 1010.6
20260509134205 65 209 10.0 18.0 0.00 0.00 0.00 69 1010.6
20260509133705 65 192 10.0 17.0 0.00 0.00 0.00 70 1010.5
20260509133205 65 198 12.0 20.0 0.00 0.00 0.00 69 1010.6
20260509132705 65 183 10.0 17.0 0.00 0.00 0.00 70 1010.6
20260509132205 65 204 13.0 20.0 0.00 0.00 0.00 70 1010.8
20260509131705 65 255 13.0 20.0 0.00 0.00 0.00 71 1010.7
20260509131205 65 213 10.0 20.0 0.00 0.00 0.00 70 1010.6
20260509130705 65 212 14.0 20.0 0.00 0.00 0.00 70 1010.7
20260509130205 65 179 13.0 20.0 0.00 0.00 0.00 71 1010.7
20260509125204 65 216 13.0 17.0 0.00 0.00 0.00 71 1010.7
20260509124705 65 201 13.0 25.0 0.00 0.00 0.00 70 1010.7
20260509124205 64 172 14.0 22.0 0.00 0.00 0.00 71 1010.7
20260509123705 64 215 12.0 17.0 0.00 0.00 0.00 71 1010.7
20260509123205 64 199 13.0 18.0 0.00 0.00 0.00 72 1010.7
20260509122705 63 209 13.0 20.0 0.00 0.00 0.00 74 1010.7
20260509121205 62 203 15.0 21.0 0.00 0.00 0.00 75 1010.8
20260509120705 62 208 13.0 20.0 0.00 0.00 0.00 75 1010.8
20260509120205 62 214 14.0 20.0 0.00 0.00 0.00 76 1010.8
20260509115705 61 207 13.0 20.0 0.00 0.00 0.00 76 1010.7
20260509115205 61 42 10.0 20.0 0.00 0.00 0.00 75 1010.7
20260509114705 61 208 12.0 20.0 0.00 0.00 0.00 76 1010.8
20260509113705 61 205 13.0 18.0 0.00 0.00 0.00 77 1010.7
20260509113204 61 214 13.0 17.0 0.00 0.00 0.00 77 1010.7
20260509112704 60 190 12.0 22.0 0.00 0.00 0.00 78 1010.7
20260509111705 60 194 13.0 22.0 0.00 0.00 0.00 78 1010.7
20260509111205 60 213 13.0 22.0 0.00 0.00 0.00 78 1010.8
20260509110705 60 156 14.0 20.0 0.00 0.00 0.00 79 1010.8
20260509110205 60 294 15.0 22.0 0.00 0.00 0.00 79 1010.7
20260509105705 60 176 12.0 22.0 0.00 0.00 0.00 79 1010.8
20260509105205 60 189 12.0 20.0 0.00 0.00 0.00 79 1010.8
20260509104705 60 206 13.0 20.0 0.00 0.00 0.00 79 1010.8
20260509104205 60 208 13.0 20.0 0.00 0.00 0.00 80 1010.7
20260509103705 60 166 13.0 24.0 0.00 0.00 0.00 79 1010.6
20260509103206 60 193 12.0 20.0 0.00 0.00 0.00 79 1010.5
20260509102704 60 108 13.0 20.0 0.00 0.00 0.00 79 1010.6
20260509102205 60 178 12.0 20.0 0.00 0.00 0.00 79 1010.7
20260509101704 60 176 13.0 22.0 0.00 0.00 0.00 78 1010.7
20260509101205 60 173 9.0 20.0 0.00 0.00 0.00 78 1010.5
20260509100704 60 175 12.0 20.0 0.00 0.00 0.00 78 1010.5
20260509095705 60 196 11.0 20.0 0.00 0.00 0.00 78 1010.5
20260509095205 60 181 9.0 18.0 0.00 0.00 0.00 78 1010.5
20260509094705 60 212 10.0 16.0 0.00 0.00 0.00 77 1010.5
20260509094204 60 274 10.0 16.0 0.00 0.00 0.00 77 1010.4
20260509093705 60 177 11.0 15.0 0.00 0.00 0.00 77 1010.3
20260509092705 60 168 9.0 17.0 0.00 0.00 0.00 77 1010.5
20260509092205 60 173 9.0 15.0 0.00 0.00 0.00 77 1010.5
20260509091705 60 194 9.0 14.0 0.00 0.00 0.00 76 1010.5
20260509091205 60 192 10.0 20.0 0.00 0.00 0.00 77 1010.5
20260509090705 60 228 11.0 16.0 0.00 0.00 0.00 77 1010.4
20260509090205 60 281 12.0 17.0 0.00 0.00 0.00 77 1010.4
20260509085705 60 15 12.0 17.0 0.00 0.00 0.00 76 1010.4
20260509085205 60 336 10.0 17.0 0.00 0.00 0.00 77 1010.4
20260509084705 60 176 10.0 17.0 0.00 0.00 0.00 77 1010.5
20260509084205 60 191 10.0 17.0 0.00 0.00 0.00 76 1010.5
20260509083705 60 214 10.0 13.0 0.00 0.00 0.00 76 1010.6
20260509083205 60 177 9.0 14.0 0.00 0.00 0.00 76 1010.5
20260509082704 61 214 9.0 15.0 0.00 0.00 0.00 76 1010.6
20260509081204 61 190 11.0 17.0 0.00 0.00 0.00 76 1010.6
20260509080704 61 199 12.0 17.0 0.00 0.00 0.00 76 1010.7
20260509080205 61 201 10.0 18.0 0.00 0.00 0.00 75 1010.8
20260509075705 61 186 9.0 20.0 0.00 0.00 0.00 75 1010.8
20260509075204 61 178 12.0 20.0 0.00 0.00 0.00 76 1010.8
20260509074705 61 180 8.0 14.0 0.00 0.00 0.00 76 1010.7
20260509074204 61 192 10.0 14.0 0.00 0.00 0.00 75 1010.6
20260509073704 60 192 9.0 20.0 0.00 0.00 0.00 75 1010.8
20260509072704 60 15 10.0 16.0 0.00 0.00 0.00 75 1010.8
20260509072204 60 174 12.0 16.0 0.00 0.00 0.00 76 1010.9
20260509071705 60 157 12.0 18.0 0.00 0.00 0.00 76 1011.0
20260509071205 60 172 10.0 15.0 0.00 0.00 0.00 76 1011.0
20260509070205 60 215 9.0 16.0 0.00 0.00 0.00 76 1011.0
20260509065705 60 204 10.0 18.0 0.00 0.00 0.00 76 1011.0
20260509065205 60 191 11.0 16.0 0.00 0.00 0.00 76 1011.1
20260509064205 60 199 12.0 18.0 0.00 0.00 0.00 76 1011.1
20260509063705 60 180 15.0 21.0 0.00 0.00 0.00 75 1011.1
20260509063205 60 183 12.0 18.0 0.00 0.00 0.00 75 1011.2
20260509062705 60 182 12.0 20.0 0.00 0.00 0.00 75 1011.2
20260509062205 60 270 12.0 20.0 0.00 0.00 0.00 75 1011.3
20260509061705 60 238 14.0 20.0 0.00 0.00 0.00 76 1011.3
20260509061204 60 205 11.0 17.0 0.00 0.00 0.00 76 1011.2
20260509060704 60 204 11.0 18.0 0.00 0.00 0.00 76 1011.2
20260509060204 60 204 10.0 16.0 0.00 0.00 0.00 76 1011.3
20260509055704 60 198 12.0 20.0 0.00 0.00 0.00 75 1011.4
20260509055204 60 198 11.0 17.0 0.00 0.00 0.00 75 1011.3
20260509054704 60 223 12.0 18.0 0.00 0.00 0.00 75 1011.3
20260509053705 60 294 12.0 17.0 0.00 0.00 0.00 76 1011.4
20260509053204 60 172 11.0 20.0 0.00 0.00 0.00 76 1011.5
20260509052705 60 188 12.0 18.0 0.00 0.00 0.00 76 1011.4
20260509052205 60 215 10.0 16.0 0.00 0.00 0.00 77 1011.4
20260509051705 60 192 11.0 22.0 0.00 0.00 0.00 76 1011.4
20260509050705 60 196 9.0 18.0 0.00 0.00 0.00 76 1011.4
20260509050205 60 194 11.0 21.0 0.00 0.00 0.00 76 1011.5
20260509045705 60 227 12.0 18.0 0.00 0.00 0.00 75 1011.4
20260509045205 60 220 10.0 18.0 0.00 0.00 0.00 75 1011.5
20260509044705 60 185 10.0 18.0 0.00 0.00 0.00 75 1011.4
20260509044205 60 191 11.0 22.0 0.00 0.00 0.00 74 1011.5
20260509042704 60 246 11.0 20.0 0.00 0.00 0.00 73 1011.5
20260509042205 60 212 13.0 20.0 0.00 0.00 0.00 73 1011.5
20260509041704 60 199 11.0 20.0 0.00 0.00 0.00 74 1011.5
20260509041204 60 188 11.0 14.0 0.00 0.00 0.00 74 1011.6
20260509040704 60 181 12.0 17.0 0.00 0.00 0.00 75 1011.7
20260509035705 60 190 10.0 20.0 0.00 0.00 0.00 75 1011.8
20260509035205 60 177 10.0 17.0 0.00 0.00 0.00 74 1011.9
20260509034204 60 202 9.0 17.0 0.00 0.00 0.00 74 1011.8
20260509033705 60 191 10.0 15.0 0.00 0.00 0.00 74 1011.7
20260509033205 60 210 10.0 17.0 0.00 0.00 0.00 74 1011.7
20260509032205 60 178 11.0 17.0 0.00 0.00 0.00 73 1011.8
20260509031705 60 194 12.0 17.0 0.00 0.00 0.00 73 1012.0
20260509031204 60 184 9.0 16.0 0.00 0.00 0.00 72 1012.0
20260509030705 60 190 9.0 16.0 0.00 0.00 0.00 71 1012.0
20260509024705 61 192 11.0 17.0 0.00 0.00 0.00 69 1011.8
20260509023705 61 181 12.0 20.0 0.00 0.00 0.00 69 1011.7
20260509023205 61 190 12.0 18.0 0.00 0.00 0.00 69 1011.8
20260509022704 61 213 12.0 18.0 0.00 0.00 0.00 68 1011.7
20260509022205 61 183 9.0 20.0 0.00 0.00 0.00 68 1011.7
20260509021705 61 181 12.0 18.0 0.00 0.00 0.00 68 1011.7
20260509021204 61 196 10.0 17.0 0.00 0.00 0.00 68 1011.8
20260509020205 61 197 10.0 14.0 0.00 0.00 0.00 67 1011.8
20260509015205 61 206 10.0 16.0 0.00 0.00 0.00 66 1011.8
20260509014205 61 188 11.0 18.0 0.00 0.00 0.00 66 1011.7
20260509013705 61 195 10.0 17.0 0.00 0.00 0.00 66 1011.7
20260509013205 61 193 10.0 14.0 0.00 0.00 0.00 66 1011.7
20260509012205 61 191 11.0 17.0 0.00 0.00 0.00 65 1011.7
20260509011205 62 223 10.0 17.0 0.00 0.00 0.00 65 1011.5
20260509010704 62 196 10.0 17.0 0.00 0.00 0.00 64 1011.5
20260509010204 62 191 11.0 18.0 0.00 0.00 0.00 64 1011.4
20260509005704 62 195 10.0 17.0 0.00 0.00 0.00 63 1011.4
20260509005204 62 193 10.0 20.0 0.00 0.00 0.00 64 1011.3
20260509004704 62 174 10.0 17.0 0.00 0.00 0.00 63 1011.2
20260509004204 62 184 10.0 20.0 0.00 0.00 0.00 62 1011.2
20260509003704 62 186 9.0 18.0 0.00 0.00 0.00 62 1011.2
20260509003204 62 204 13.0 21.0 0.00 0.00 0.00 62 1011.0
20260509002204 62 195 9.0 15.0 0.00 0.00 0.00 61 1011.0
20260509001704 62 184 9.0 15.0 0.00 0.00 0.00 61 1010.9
20260509000704 63 211 7.0 15.0 0.00 0.00 0.00 59 1010.9
20260509000204 63 183 9.0 16.0 0.00 0.00 0.00 59 1010.9
20260508235704 63 192 9.0 17.0 0.00 0.00 0.00 59 1010.8
20260508234704 63 186 9.0 15.0 0.00 0.00 0.00 57 1010.8
20260508234204 63 195 7.0 14.0 0.00 0.00 0.00 58 1010.8
20260508233704 63 189 9.0 18.0 0.00 0.00 0.00 56 1010.7
20260508232705 63 199 12.0 20.0 0.00 0.00 0.00 54 1010.7
20260508232204 63 193 10.0 17.0 0.00 0.00 0.00 54 1010.7
20260508231204 63 198 11.0 17.0 0.00 0.00 0.00 53 1010.7
20260508230704 64 178 13.0 20.0 0.00 0.00 0.00 52 1010.6
20260508230205 64 196 10.0 17.0 0.00 0.00 0.00 54 1010.7
20260508225704 64 200 10.0 16.0 0.00 0.00 0.00 53 1010.6
20260508225204 64 196 13.0 18.0 0.00 0.00 0.00 51 1010.7
20260508224704 64 194 13.0 20.0 0.00 0.00 0.00 52 1010.6
20260508224205 64 188 12.0 20.0 0.00 0.00 0.00 51 1010.6
20260508223704 64 194 12.0 23.0 0.00 0.00 0.00 53 1010.5
20260508223204 64 204 13.0 23.0 0.00 0.00 0.00 52 1010.5
20260508222704 65 183 13.0 24.0 0.00 0.00 0.00 51 1010.5
20260508222204 65 194 14.0 21.0 0.00 0.00 0.00 51 1010.6
20260508221704 65 187 14.0 22.0 0.00 0.00 0.00 51 1010.6
20260508221205 65 203 12.0 20.0 0.00 0.00 0.00 51 1010.5
20260508220704 66 187 13.0 20.0 0.00 0.00 0.00 53 1010.4
20260508220204 66 199 14.0 21.0 0.00 0.00 0.00 51 1010.6
20260508215704 66 206 13.0 18.0 0.00 0.00 0.00 50 1010.4
20260508215204 67 218 13.0 20.0 0.00 0.00 0.00 51 1010.5
20260508214704 67 202 12.0 18.0 0.00 0.00 0.00 49 1010.5
20260508214204 68 205 13.0 20.0 0.00 0.00 0.00 51 1010.4
20260508213704 68 187 12.0 20.0 0.00 0.00 0.00 51 1010.4
20260508213204 68 190 13.0 21.0 0.00 0.00 0.00 49 1010.4
20260508212704 68 189 11.0 17.0 0.00 0.00 0.00 49 1010.4
20260508212204 68 186 13.0 22.0 0.00 0.00 0.00 50 1010.4
20260508211205 68 194 12.0 20.0 0.00 0.00 0.00 49 1010.5
20260508210705 68 192 13.0 21.0 0.00 0.00 0.00 45 1010.5
20260508210205 68 194 14.0 20.0 0.00 0.00 0.00 46 1010.5
20260508205704 68 199 13.0 20.0 0.00 0.00 0.00 49 1010.6
20260508205204 68 202 13.0 17.0 0.00 0.00 0.00 47 1010.7
20260508204704 68 203 11.0 17.0 0.00 0.00 0.00 48 1010.7
20260508203704 68 209 16.0 26.0 0.00 0.00 0.00 45 1010.7
20260508203204 68 194 14.0 21.0 0.00 0.00 0.00 48 1010.7
20260508202704 68 198 13.0 21.0 0.00 0.00 0.00 46 1010.8
20260508202204 68 195 16.0 23.0 0.00 0.00 0.00 48 1010.9
20260508201704 68 187 15.0 22.0 0.00 0.00 0.00 47 1011.0
20260508201205 69 203 14.0 24.0 0.00 0.00 0.00 48 1011.0
20260508200704 69 187 12.0 20.0 0.00 0.00 0.00 50 1011.2
20260508200204 69 194 13.0 23.0 0.00 0.00 0.00 49 1011.3
20260508195704 69 191 13.0 20.0 0.00 0.00 0.00 49 1011.3
20260508195204 69 198 12.0 21.0 0.00 0.00 0.00 49 1011.4
20260508194705 68 206 12.0 20.0 0.00 0.00 0.00 48 1011.4
20260508194204 68 203 12.0 15.0 0.00 0.00 0.00 49 1011.5
20260508193704 68 195 13.0 22.0 0.00 0.00 0.00 46 1011.4
20260508193204 68 190 14.0 20.0 0.00 0.00 0.00 48 1011.5
20260508192204 68 203 14.0 20.0 0.00 0.00 0.00 51 1011.6
20260508191704 68 198 10.0 18.0 0.00 0.00 0.00 48 1011.7
20260508191205 68 199 14.0 22.0 0.00 0.00 0.00 43 1011.8
20260508185205 67 200 13.0 24.0 0.00 0.00 0.00 47 1012.1
20260508184704 67 206 13.0 21.0 0.00 0.00 0.00 47 1012.1
20260508184204 67 188 13.0 22.0 0.00 0.00 0.00 47 1012.1
20260508183704 67 203 13.0 20.0 0.00 0.00 0.00 46 1012.2
20260508183204 67 205 14.0 20.0 0.00 0.00 0.00 48 1012.2
20260508182204 67 198 14.0 20.0 0.00 0.00 0.00 47 1012.2
20260508181705 67 205 15.0 29.0 0.00 0.00 0.00 50 1012.3
20260508181204 67 198 15.0 22.0 0.00 0.00 0.00 46 1012.3
20260508180704 67 203 14.0 21.0 0.00 0.00 0.00 46 1012.4
20260508180204 67 202 16.0 23.0 0.00 0.00 0.00 46 1012.3
20260508174204 67 192 13.0 20.0 0.00 0.00 0.00 44 1012.4
20260508173704 67 208 13.0 18.0 0.00 0.00 0.00 46 1012.6
20260508173204 66 186 13.0 18.0 0.00 0.00 0.00 45 1012.6
20260508172704 66 185 12.0 18.0 0.00 0.00 0.00 42 1012.7
20260508171704 66 196 10.0 16.0 0.00 0.00 0.00 44 1012.9
20260508171205 66 192 13.0 20.0 0.00 0.00 0.00 44 1013.0
20260508170704 65 200 14.0 20.0 0.00 0.00 0.00 45 1013.0
20260508170204 65 200 8.0 14.0 0.00 0.00 0.00 42 1013.0
20260508165704 65 164 10.0 18.0 0.00 0.00 0.00 45 1013.1
20260508165204 65 209 11.0 18.0 0.00 0.00 0.00 41 1013.1
20260508164704 65 179 13.0 20.0 0.00 0.00 0.00 38 1013.2